sat.trackr.live / text

‹ back to catalog

2025-292A

NORAD 66993 · 2025-292A

PAYLOAD ACTIVE UNKNOWN

§ Identity

Operator
Country
PRC
Launch date
2025-12-10
Launch site
JSC
Launch vehicle
Mass (kg)
RCS (m²)

External: N2YO · Heavens-Above · Gunter

§ Orbital elements

Epoch: 2026-05-25T04:37:38.607744Z

Period
95.61 min
Inclination
97.6318°
Eccentricity
0.0016750
Mean motion
15.06098125 rev/d
Perigee alt
536.5 km
Apogee alt
559.7 km
Semi-major
6,926.3 km
B*
2.3438e-4
RAAN
221.1193°
Arg perigee
79.6524°
Mean anomaly
280.6590°
Rev number
2,498

§ Raw data

2025-292A1 66993U 25292A   26145.19280796  .00003373  00000+0  23438-3 0  99912 66993  97.6318 221.1193 0016750  79.6524 280.6590 15.06098125 24980

JSON: /api/v1/satellites/66993 · /tle

For live sub-satellite position, see the globe view (requires WebGL).

§ Visibility from observer

Set your observer location to see the next 7 days of passes ≥ 10°. The values pass through the URL so the page stays shareable.

No JS? Fill the form by hand. The geolocation button needs JavaScript.

§ Radio — SatNOGS DB

ModeDescriptionDownlinkUplink
CW Mode U - Transmitter 437.719 MHz

1 transmitter · refreshed weekly from db.satnogs.org